Theta_e
315 315 314 313 312 311 310 308 306 306 307 307 306 308 308 307 308 306 303 305 305 307 307 306 307 309 309 309 311 311 312 310 312 313 312 309 311 311 311 312 311 313 317 316 320 326 330 340 341 348 346 343 342 343
315 313 313 312 310 308 308 307 307 307 307 307 307 308 308 307 308 306 304 304 304 303 305 304 305 305 307 308 308 309 311 310 312 310 313 314 314 315 319 322 320 316 315 317 322 323 339 332 334 335 334 338 342 343
313 312 310 309 307 306 307 307 307 307 308 307 307 309 308 306 308 306 304 305 304 304 304 305 307 307 307 306 307 308 311 310 312 309 310 311 313 315 320 320 321 324 320 320 321 331 334 332 330 331 333 339 342 343
312 310 308 306 306 308 307 307 308 308 307 307 308 309 308 307 307 306 304 304 304 304 307 307 307 307 308 309 308 308 308 309 310 310 310 310 314 313 315 316 320 323 328 329 328 329 333 332 331 332 335 341 343 345
312 309 306 305 310 308 308 307 308 308 307 308 309 309 307 307 307 305 305 304 303 304 306 305 305 309 309 308 308 308 308 309 310 311 311 311 311 316 314 317 319 325 325 327 330 326 327 329 334 335 337 342 341 342
310 310 306 309 312 309 308 308 308 307 308 308 308 307 306 307 307 305 305 305 303 302 305 306 307 310 311 309 309 308 308 311 310 312 310 311 311 314 317 318 320 319 320 320 324 325 325 328 332 331 335 340 338 335
311 310 306 313 313 309 308 308 308 307 308 307 307 307 306 306 305 307 308 306 304 302 305 307 309 312 311 311 310 310 308 310 311 311 311 311 311 315 315 316 317 320 319 320 323 325 326 325 329 328 331 336 336 335
311 310 308 314 314 311 309 307 307 307 307 306 306 306 306 306 305 307 305 304 304 304 305 308 309 313 310 313 312 310 310 310 311 311 311 312 315 315 317 314 317 319 320 320 320 323 324 326 326 325 328 332 337 334
312 311 309 315 314 313 310 309 307 307 306 306 306 306 307 307 309 307 304 304 303 304 307 308 311 313 311 313 314 313 313 313 311 312 313 315 314 317 312 314 314 315 316 319 322 324 325 325 327 324 326 329 335 335
312 312 310 315 314 312 310 309 307 307 307 307 307 308 311 308 305 305 306 307 307 307 306 307 308 310 310 315 315 313 313 315 314 313 313 314 312 310 311 311 311 312 313 315 319 323 325 325 326 325 324 325 329 335
312 312 310 315 314 312 310 309 308 308 307 308 312 313 308 305 305 306 309 309 309 310 309 309 309 311 311 315 316 314 315 310 312 315 312 314 315 311 309 310 311 311 312 315 317 320 320 325 326 326 324 324 329 334
312 312 311 314 313 314 311 310 309 309 312 312 312 309 308 308 309 310 310 308 305 313 314 312 315 313 314 316 317 316 315 310 316 312 315 316 312 309 309 311 314 314 316 318 320 321 321 321 324 326 325 324 329 330
312 312 312 314 314 312 314 312 310 311 311 314 314 316 313 316 316 322 324 323 322 314 314 316 317 315 317 316 316 315 318 318 314 317 315 313 309 308 309 312 313 318 320 322 323 322 321 322 324 325 327 328 328 328
313 312 313 315 315 315 314 315 311 310 309 321 327 320 323 323 322 322 325 325 323 321 319 318 317 315 313 315 315 318 317 316 313 311 312 311 310 310 311 310 311 314 317 319 321 321 323 324 324 323 323 324 325 325
314 312 317 317 317 316 317 317 313 311 316 328 323 321 325 322 319 318 322 322 324 321 319 319 317 317 316 317 316 315 316 317 316 316 315 313 313 312 312 310 310 312 314 314 315 316 317 319 318 318 318 319 320 322
315 316 319 317 316 315 317 319 315 315 326 327 323 322 323 323 320 319 319 318 322 323 321 324 321 321 320 318 316 315 316 317 317 316 314 313 313 311 313 313 312 311 312 312 311 312 313 314 315 316 315 316 316 316
316 322 317 313 314 315 318 322 325 329 324 323 324 323 323 323 323 321 321 318 316 317 315 316 315 315 319 314 317 317 317 316 316 314 314 314 314 313 312 314 313 313 312 312 312 311 311 311 312 313 314 314 315 313
318 318 315 314 317 317 327 326 328 323 322 326 326 324 324 323 324 321 321 321 318 316 316 316 317 313 314 314 313 314 313 313 315 314 313 314 314 311 311 312 311 315 314 314 313 312 312 312 313 313 313 312 313 312
305 316 313 315 317 318 326 329 325 326 325 324 325 325 325 325 326 324 323 321 318 317 318 318 315 315 315 315 313 312 312 313 312 315 314 314 311 311 309 307 308 310 308 309 309 311 312 310 312 313 313 312 311 310
313 314 318 319 318 324 330 329 324 331 328 327 327 327 328 328 326 325 323 321 322 320 319 318 317 316 315 316 316 314 313 313 313 310 310 312 309 311 309 306 307 305 305 305 305 306 307 306 307 309 308 309 309 308
317 324 322 321 325 322 329 330 327 327 331 329 326 328 328 325 325 327 326 323 322 321 319 320 320 319 316 314 313 314 312 313 312 309 310 309 309 308 308 305 304 303 304 304 304 304 304 303 303 303 308 307 306 306
315 321 321 324 328 329 333 326 330 332 332 333 329 327 327 327 325 325 327 326 323 322 322 320 321 320 320 320 317 312 311 312 310 307 306 307 309 308 308 305 303 303 303 303 302 302 302 301 301 302 305 306 305 305
315 319 322 323 327 323 324 324 328 328 330 332 330 328 330 328 326 326 328 325 325 323 321 321 318 316 318 315 314 312 311 311 313 308 307 307 306 304 304 304 302 301 301 302 300 301 300 300 300 300 300 301 300 299
316 321 326 326 327 321 325 329 328 328 329 328 327 328 328 327 326 327 327 325 323 323 324 326 321 321 320 320 319 315 313 309 309 307 306 306 305 304 303 303 301 300 300 300 299 299 298 299 299 299 300 299 299 300
321 322 322 314 325 328 327 329 329 326 327 329 329 327 329 330 327 320 323 327 325 323 326 325 324 322 320 319 315 312 308 307 308 309 305 305 304 303 302 302 300 299 299 299 298 298 297 297 298 298 299 299 299 299
317 323 322 323 324 322 325 325 327 328 327 328 327 327 331 328 326 328 324 324 323 321 324 322 319 320 316 314 314 312 309 308 306 305 305 303 302 302 301 301 300 299 299 298 297 297 297 297 298 298 297 298 298 298
317 321 325 326 325 326 327 328 327 327 326 326 327 328 328 325 323 325 325 324 322 321 316 315 314 314 314 313 311 308 306 306 304 304 303 301 301 300 300 300 299 298 298 297 297 296 297 297 297 297 297 296 297 297
318 323 322 321 327 327 326 326 326 327 327 327 326 327 328 327 326 325 325 324 321 318 316 313 311 311 309 307 305 304 304 304 303 303 302 301 300 299 299 298 298 297 297 296 296 296 296 297 296 296 296 296 296 296
320 319 319 321 323 327 328 326 326 326 327 326 328 327 329 329 326 324 322 321 319 318 317 315 313 310 308 306 305 304 303 302 302 304 303 301 300 299 298 298 297 297 297 297 296 296 296 296 296 295 296 295 295 295
323 322 323 324 324 325 327 327 327 324 325 326 325 326 326 329 323 322 323 322 320 319 318 317 316 313 310 307 305 303 302 300 300 300 301 300 299 298 298 298 298 298 297 297 297 297 297 297 296 297 296 296 296 296
324 324 324 323 325 325 326 325 325 326 326 323 324 326 325 326 323 321 316 320 320 318 318 317 314 311 308 307 305 303 301 299 298 298 299 298 298 298 298 298 298 298 297 297 298 297 297 297 297 297 297 297 297 297
325 325 325 324 325 327 327 326 325 327 326 325 325 327 327 326 328 330 317 320 322 319 318 313 308 305 303 301 302 302 300 298 297 297 297 297 297 298 298 298 298 298 298 298 298 298 297 297 297 297 297 297 297 297
325 324 323 324 326 328 327 328 326 324 323 325 328 325 325 329 330 326 325 323 322 319 317 309 305 303 302 300 299 297 296 295 294 295 295 295 296 297 297 298 298 298 298 298 298 298 298 298 298 298 298 298 298 298
Wind_Speed
15 15 19 22 25 27 25 24 21 17 15 13 9 7 6 6 7 16 4 7 1 2 8 10 10 9 6 2 2 4 0 3 2 2 4 7 4 6 8 9 11 9 5 5 5 4 7 15 9 6 5 7 7 13
16 19 22 25 28 26 24 22 17 16 15 11 6 5 4 5 6 15 3 4 6 2 5 19 23 22 18 14 4 2 4 3 2 2 3 3 3 4 10 5 9 11 10 7 6 5 2 10 8 6 7 6 10 14
19 22 26 28 27 26 22 18 17 15 12 7 3 3 2 2 5 14 7 7 2 2 6 5 6 13 18 22 19 5 2 4 3 3 2 2 2 3 4 5 8 8 5 8 9 10 9 11 10 8 8 7 11 10
22 26 28 29 27 23 19 18 14 12 9 6 5 3 1 1 4 16 9 10 3 1 3 5 12 12 12 9 17 17 7 4 7 3 2 1 2 3 3 7 15 9 12 10 3 15 12 16 13 9 10 7 11 13
25 28 30 29 25 22 18 14 11 9 8 8 7 5 4 4 4 16 8 10 5 0 3 7 25 9 11 13 6 6 7 6 2 2 1 3 3 3 4 3 6 3 5 5 3 10 6 12 12 18 15 7 13 14
25 29 30 26 25 19 15 12 9 9 9 9 9 7 8 9 16 7 1 5 11 3 1 4 8 6 14 8 7 4 4 3 3 4 3 3 5 1 2 2 3 4 7 6 5 14 13 14 12 19 17 9 12 12
26 29 28 24 23 17 12 9 8 10 9 10 11 12 16 15 6 4 2 2 7 6 1 4 5 3 9 8 6 3 9 3 3 1 3 4 6 5 3 4 6 2 5 9 14 16 10 17 10 16 18 8 14 11
26 28 24 22 21 15 10 7 10 10 10 11 12 14 14 9 5 4 7 7 11 0 1 2 4 2 5 3 2 2 1 0 1 3 3 3 5 2 1 13 18 13 9 3 15 13 7 12 13 15 16 12 11 11
25 27 21 20 19 14 10 9 11 10 10 11 12 9 3 3 2 3 7 9 2 0 2 2 3 3 4 2 3 4 3 2 3 2 3 3 3 4 8 13 15 14 11 14 14 13 9 11 12 14 15 15 9 9
25 25 18 17 15 10 7 8 10 9 8 9 3 1 2 3 9 6 1 1 2 2 1 2 2 3 3 2 2 1 3 2 1 2 4 4 1 4 6 11 12 17 15 15 13 12 9 9 12 13 15 14 15 7
24 25 18 14 12 7 3 6 9 9 8 3 3 2 5 9 3 3 1 2 2 2 3 3 3 4 3 2 1 1 2 2 1 3 3 4 4 12 19 16 13 15 15 16 13 15 14 5 8 8 13 15 14 10
23 24 19 10 13 8 1 7 10 10 2 4 2 7 5 2 2 3 1 1 3 3 3 2 3 4 3 3 1 2 2 1 4 2 1 3 5 19 21 19 13 11 13 14 17 15 8 8 7 6 6 8 14 19
22 23 18 9 12 15 8 7 13 13 12 3 5 5 3 3 3 2 4 3 2 4 4 3 3 2 3 2 2 3 5 4 2 2 3 4 10 15 20 18 17 14 13 10 9 12 8 9 7 10 9 15 18 19
22 23 17 7 15 21 19 8 8 6 5 4 5 4 2 4 5 6 4 1 3 3 4 4 1 3 2 3 1 3 3 4 3 4 4 5 8 11 14 16 19 17 15 16 15 18 18 18 14 19 18 20 18 16
22 23 9 7 19 22 21 15 8 9 4 4 3 1 3 2 6 8 3 1 3 4 4 3 1 1 1 2 3 4 4 4 3 1 2 4 6 7 7 12 17 14 14 16 19 16 17 16 17 17 19 21 23 20
23 14 3 17 22 19 20 13 5 6 5 3 1 4 3 4 5 6 6 10 3 5 3 3 4 3 3 3 4 4 2 2 0 2 3 2 2 7 2 2 3 13 11 9 18 18 20 20 17 15 20 23 23 23
17 3 13 23 20 18 17 5 7 6 4 3 1 2 3 3 2 2 4 6 10 7 5 4 4 5 2 4 2 3 2 2 4 3 2 2 2 6 7 4 8 4 3 4 4 14 19 14 11 13 13 17 20 23
7 12 20 19 16 15 5 5 4 3 4 2 3 3 1 1 3 6 2 4 5 5 5 5 4 8 4 8 6 3 4 3 4 4 2 1 3 6 11 11 18 11 7 2 4 5 7 11 9 8 13 16 17 18
25 23 21 11 9 5 4 5 4 3 3 2 3 2 1 2 3 2 4 6 9 6 2 4 4 5 4 3 4 4 4 4 3 2 3 3 8 3 11 18 19 17 18 17 21 11 8 16 19 15 15 16 13 14
16 17 9 6 5 3 4 3 2 3 3 2 1 1 2 1 1 3 3 3 3 3 3 2 2 3 4 3 3 3 2 3 2 3 4 2 7 6 9 14 15 19 17 19 17 18 17 17 16 13 17 16 13 12
10 2 11 7 3 8 4 2 2 4 3 0 2 3 3 2 3 2 1 2 3 2 3 3 5 3 8 7 2 2 2 4 2 3 2 3 6 9 7 12 16 17 14 15 14 15 17 15 18 20 13 13 11 10
5 10 5 6 4 6 5 8 3 2 3 2 2 1 1 3 4 7 2 2 3 4 3 3 4 6 4 5 7 1 6 8 9 8 8 12 4 4 6 10 13 11 13 13 15 15 16 20 23 22 13 6 5 4
9 4 5 5 4 1 5 4 4 3 4 4 5 3 4 3 2 5 2 1 2 5 8 6 7 4 6 13 11 5 6 11 4 10 8 9 13 16 14 14 16 14 12 12 16 16 17 21 18 20 20 16 20 21
6 3 4 4 7 4 3 5 4 3 4 4 3 4 2 5 3 3 3 2 2 7 5 7 10 5 8 9 6 7 4 8 11 13 12 9 8 11 14 14 16 17 16 14 17 16 19 20 16 17 18 13 15 17
2 5 3 6 4 5 7 10 10 4 6 11 5 4 5 6 4 2 2 2 3 4 4 8 9 5 2 4 11 9 11 13 8 2 5 3 10 12 12 12 17 19 16 16 16 16 17 19 17 18 16 20 21 17
4 5 6 5 5 5 4 7 7 9 9 11 6 2 3 5 4 5 3 4 4 6 3 1 2 4 6 11 6 8 9 8 6 9 9 17 16 13 10 8 10 13 14 17 15 16 15 15 17 18 17 18 19 20
4 6 6 5 5 4 5 7 2 3 7 8 1 1 4 3 6 2 5 6 3 8 14 12 11 10 9 11 12 9 12 13 10 10 17 20 19 16 14 11 9 8 12 12 13 14 13 16 17 17 17 16 16 16
6 5 11 10 7 6 8 8 10 8 2 5 4 3 6 9 6 4 6 14 18 18 18 16 12 16 15 14 14 13 12 11 13 9 13 20 19 16 14 13 11 6 5 7 10 12 12 11 13 15 17 15 14 14
5 6 8 11 9 7 6 8 10 5 5 3 1 4 4 3 4 2 11 19 20 17 15 14 15 17 16 14 14 13 11 9 7 6 7 6 9 12 12 11 11 10 13 5 5 13 15 6 6 7 13 12 12 13
9 8 10 12 13 11 9 5 1 7 5 2 4 3 3 1 4 5 1 10 18 16 13 11 11 13 16 17 17 16 14 11 10 9 5 6 9 9 9 9 9 9 10 11 12 13 14 13 13 12 14 15 14 16
4 7 10 10 10 9 9 8 4 2 6 3 3 7 6 3 12 17 9 3 15 19 16 13 13 12 14 14 18 17 13 12 10 11 11 10 10 8 8 7 8 8 9 9 10 15 15 14 15 16 16 16 17 17
8 10 9 12 10 7 6 4 4 6 9 5 1 9 4 4 9 2 8 4 14 12 15 21 19 19 20 18 23 22 21 17 13 11 11 10 8 8 8 8 6 5 8 11 11 12 12 12 11 11 11 12 14 16
7 8 10 10 8 7 3 1 3 4 3 3 3 8 9 7 4 5 4 8 11 21 19 24 25 25 24 22 22 21 18 17 16 15 14 14 13 11 8 8 7 7 9 10 9 8 8 10 11 12 14 13 15 18
Wind_Direction
353 346 336 337 338 335 332 331 333 330 327 323 306 282 273 261 233 207 211 226 267 293 293 299 332 321 324 136 147 289 231 13 315 43 263 273 272 268 263 247 251 221 212 195 243 249 269 346 29 58 303 326 342 4
351 343 343 341 339 337 335 340 341 341 338 333 318 294 264 248 233 200 152 200 234 206 268 300 287 267 263 282 319 130 166 165 136 286 25 327 339 330 354 303 324 241 223 198 209 213 53 34 62 12 351 337 17 14
349 347 344 343 340 340 345 347 348 350 350 350 345 324 299 247 219 198 139 149 153 304 284 246 257 246 244 237 246 244 103 202 114 342 6 17 320 26 337 307 322 315 242 224 232 6 34 31 19 9 344 1 26 1
350 346 347 345 346 348 350 353 357 2 8 27 35 40 36 191 192 191 163 169 172 339 292 292 319 342 315 211 227 231 184 172 114 96 56 67 270 157 261 295 297 280 316 326 201 18 335 11 349 341 330 33 32 19
348 350 349 349 350 353 357 3 12 22 47 58 57 63 54 76 149 173 142 178 183 131 329 312 298 315 250 245 232 290 241 169 135 119 134 241 254 197 229 227 247 326 349 5 328 346 310 318 344 355 358 30 54 35
352 352 351 351 351 359 5 17 30 61 70 73 80 74 79 97 149 122 98 227 209 140 307 303 335 313 346 152 148 198 250 99 131 146 227 247 239 345 287 247 293 357 273 324 291 310 304 293 1 352 346 50 64 51
353 354 352 353 357 6 17 40 70 86 87 88 85 96 103 105 90 49 34 300 181 153 286 300 305 306 354 322 246 202 221 159 179 197 226 250 258 184 244 263 287 298 289 311 310 313 330 340 1 337 339 29 64 49
353 355 354 358 1 11 31 75 96 103 104 98 96 104 110 112 76 53 48 105 134 153 275 306 285 348 51 304 269 156 176 127 149 212 272 316 319 184 241 336 339 355 334 188 297 290 313 337 350 338 345 13 56 45
352 357 356 0 7 22 62 84 108 113 113 119 116 95 56 33 44 110 132 136 152 338 339 309 308 321 129 280 313 13 25 25 310 249 228 125 20 11 320 320 323 323 316 297 299 328 341 336 309 348 347 5 11 50
352 356 357 2 10 35 74 109 124 132 141 148 145 303 99 72 109 108 160 252 213 182 203 241 255 265 287 195 177 276 152 212 234 290 343 45 177 230 297 322 314 311 317 311 319 321 316 330 320 336 343 352 4 52
350 353 357 5 3 23 98 151 152 149 159 224 239 85 97 146 27 6 297 313 340 265 196 241 241 290 289 323 351 137 10 63 138 30 49 319 334 343 329 330 320 309 307 302 296 298 286 204 269 318 338 354 354 11
345 350 349 345 5 360 237 200 192 190 217 295 65 124 146 211 210 250 214 148 218 241 176 240 251 239 303 338 320 166 107 214 66 146 55 2 329 328 330 333 330 301 290 284 273 277 264 290 226 275 304 328 0 10
339 344 343 338 350 1 2 239 229 245 287 271 212 185 186 154 280 35 355 271 242 169 223 209 291 327 343 351 37 347 345 78 232 59 35 17 325 330 333 344 350 350 333 305 306 279 273 307 333 30 26 24 25 24
332 336 333 327 351 350 346 333 224 209 215 236 193 28 303 313 346 4 101 239 163 202 143 118 3 25 2 350 4 22 341 42 54 30 360 292 308 333 337 357 6 5 7 19 33 35 31 26 35 37 32 34 27 32
329 333 324 335 344 337 332 331 198 194 248 255 97 294 265 328 39 9 88 51 145 127 134 95 91 311 50 66 12 33 34 45 42 321 298 304 289 292 325 21 6 3 19 29 23 33 28 32 42 38 32 39 32 30
329 331 350 336 329 327 323 308 216 200 245 242 5 356 14 359 41 20 22 34 94 178 199 179 149 165 81 86 45 40 43 330 153 222 213 254 297 316 325 151 10 0 350 23 64 45 35 22 22 35 42 44 43 40
331 283 320 326 319 320 314 266 211 220 230 191 195 53 356 6 38 52 51 58 37 15 37 11 29 46 125 50 95 182 351 151 151 151 150 223 253 311 319 319 222 235 277 13 356 68 71 41 27 38 45 34 44 44
297 296 308 325 324 334 287 224 254 260 268 174 164 114 74 316 39 16 64 85 69 52 25 16 50 52 58 40 51 35 18 7 126 148 183 203 109 332 355 346 344 342 346 248 191 107 68 62 26 7 48 47 52 50
305 307 317 311 314 315 272 210 209 283 276 355 163 216 232 106 101 257 125 121 124 109 58 355 53 53 60 48 48 43 6 351 6 159 177 74 133 17 33 12 7 16 34 25 34 31 70 54 48 51 59 43 34 54
295 306 304 285 277 252 261 260 186 295 275 246 253 243 114 68 134 298 140 109 119 103 101 83 73 70 82 58 15 111 21 326 5 35 350 62 61 95 62 44 23 18 25 22 21 32 28 25 21 63 72 56 46 37
328 320 316 278 246 218 280 317 200 206 293 240 271 346 220 197 233 196 356 114 77 67 77 90 114 105 114 118 67 355 109 295 309 105 317 329 78 46 80 69 57 31 23 18 11 13 21 12 4 353 99 78 53 46
270 303 293 251 262 219 223 228 248 197 237 227 295 94 6 79 278 300 108 5 97 88 77 97 132 156 177 179 156 267 278 288 230 93 26 360 54 41 50 72 68 48 16 28 24 12 10 2 3 1 17 82 61 45
284 268 232 243 250 289 253 243 248 229 205 234 153 182 106 148 238 311 69 91 97 114 141 154 162 180 196 171 189 179 271 295 91 88 42 30 59 45 37 67 68 51 15 30 30 14 8 359 3 6 2 24 20 359
252 259 247 239 185 235 233 217 231 249 283 282 120 288 214 163 190 46 349 333 189 146 160 173 183 208 208 218 189 192 301 31 96 79 44 34 57 53 37 63 60 43 12 42 27 22 10 352 5 358 347 25 17 1
276 271 155 271 269 235 228 259 245 224 269 277 233 179 209 160 109 129 197 277 290 281 161 201 222 222 137 135 116 111 75 61 17 73 93 27 76 58 42 55 61 36 21 37 18 25 6 347 360 357 27 45 21 21
222 233 175 234 210 229 239 237 240 241 250 256 230 231 79 65 56 298 216 203 229 272 212 108 39 104 83 92 91 88 103 104 46 17 47 78 68 58 42 50 51 24 37 36 20 18 355 360 5 17 14 27 28 18
235 248 219 224 280 290 280 283 150 251 270 280 326 92 91 101 183 240 292 214 199 202 94 76 58 81 98 107 111 94 77 104 70 41 91 81 75 60 56 69 64 31 41 31 28 25 10 8 9 14 14 20 30 24
238 254 233 257 233 228 255 274 281 264 288 339 267 110 148 181 178 218 215 198 178 138 122 109 92 85 87 90 86 79 61 75 72 51 93 82 74 64 55 61 62 87 78 58 38 30 17 15 18 15 9 21 23 10
234 227 251 270 277 249 227 253 255 246 176 201 186 143 121 137 187 131 150 150 144 143 141 142 143 141 137 123 113 100 85 63 75 76 68 64 58 60 57 54 51 37 21 54 41 33 24 41 29 16 18 21 15 352
238 226 238 244 248 262 268 263 357 18 284 166 100 97 117 40 351 35 113 161 142 151 159 151 170 158 160 147 129 110 94 85 72 63 80 76 74 67 61 56 49 32 26 36 40 24 19 25 24 18 19 12 12 354
228 225 230 237 243 243 254 259 151 156 290 267 232 114 100 72 22 311 302 58 147 142 157 155 114 93 76 101 135 124 112 102 97 88 92 90 86 78 73 56 52 34 27 25 42 41 23 24 24 14 19 13 3 360
216 216 231 240 241 243 247 201 194 219 247 234 189 116 100 141 190 216 262 215 186 168 155 127 115 105 104 103 106 122 126 124 113 109 104 102 90 76 77 67 56 34 22 41 44 52 37 33 17 4 358 350 339 334
212 215 229 239 238 236 255 94 315 251 268 248 169 172 221 140 139 234 258 228 182 153 144 130 124 126 125 127 127 128 132 129 124 118 112 112 111 104 94 73 53 24 24 33 35 32 17 355 343 335 317 318 330 326